Retour au catalogue

FENGYUN 1C DEB

ActifPO
NORAD 30123·DEBRIS·🇨🇳 China

Lancé May 10, 1999 depuis Taiyuan Satellite Launch Center

Loading…

Prochains Passages (prochaines 24 heures)

TLE

FraisSource: Space-Track

Époque: Sep 14, 2026, 11:58 UTC

1 30123U 99025SC  26257.49894908  .00002050  00000-0  64686-3 0  9997
2 30123  96.9190 146.1181 0224502 323.3447  35.2556 14.27662788 11782

Suivez FENGYUN 1C DEB en temps réel avec AllMySat

Download on the App Store